This is the latest recevied weather packets stored in our database for station/object G8PZT. If no packets are shown the sender has not sent any weather packets the latest 10 day(s).
| Time | Temp. | Humidity | Pressure | Rain* | Wind** | Luminosity | Snow |
|---|---|---|---|---|---|---|---|
| 1787392117 | 21.67° C | 20% | - | 1.02 mm | - | - | - |
| 1787391517 | 20.56° C | 21% | - | 0 mm | - | - | - |
| 1787390918 | 20.56° C | 24% | - | 0 mm | - | - | - |
| 1787390317 | 19.44° C | 28% | - | 0 mm | - | - | - |
| 1787389718 | 19.44° C | 28% | - | 0 mm | - | - | - |
| 1787389202 | 19.44° C | 30% | - | 0 mm | - | - | - |
| 1787389118 | 18.89° C | 30% | - | 0 mm | - | - | - |
| 1787388518 | 18.33° C | 36% | - | 0 mm | - | - | - |
| 1787387318 | 16.67° C | 45% | - | 0 mm | - | - | - |
| 1787386803 | 15.56° C | 51% | - | 0 mm | - | - | - |
| 1787386718 | 15.56° C | 50% | - | 0 mm | - | - | - |
| 1787386118 | 15.56° C | 67% | - | 0 mm | - | - | - |
| 1787385517 | 15° C | 69% | - | 0 mm | - | - | - |
| 1787384917 | 14.44° C | 75% | - | 0 mm | - | - | - |
| 1787384317 | 14.44° C | 77% | - | 0 mm | - | - | - |
| 1787383718 | 13.89° C | 78% | - | 0 mm | - | - | - |
| 1787383202 | 13.89° C | 78% | - | 0 mm | - | - | - |
| 1787383117 | 13.89° C | 78% | - | 0 mm | - | - | - |
| 1787382518 | 12.78° C | 77% | - | 0 mm | - | - | - |
| 1787382002 | 12.22° C | 78% | - | 0 mm | - | - | - |
| 1787381918 | 12.22° C | 79% | - | 0 mm | - | - | - |
| 1787381318 | 11.11° C | 80% | - | 0 mm | - | - | - |
| 1787380802 | 10.56° C | 79% | - | 0 mm | - | - | - |
| 1787380718 | 10.56° C | 80% | - | 0 mm | - | - | - |
| 1787380118 | 10° C | 79% | - | 0 mm | - | - | - |
* Rain latest hour (hover to see other rain measurements)
** Current wind speed in m/s (hover to see current wind gust speed)